Location: Shenandoah County Park
(38.9356°N, 78.4524°W)
Time: 04:35:27
(UTC-04:00)

Transit 2A - Pass Details

Date: 13 June 2024
Orbit: 591 x 960 km, 66.7° (Epoch: 23 July)

Event Time Altitude Azimuth Distance (km) Brightness Sun altitude
Rises 05:12:57 0° 312° (NW) 3,578 9.3 -6.4°
Reaches altitude 10° 05:16:30 10° 292° (WNW) 2,667 8.5 -5.9°
Maximum altitude 05:20:02 16° 257° (WSW) 2,289 7.9 -5.3°
Drops below altitude 10° 05:23:37 10° 222° (SW) 2,686 8.2 -4.8°
Sets 05:27:14 0° 202° (SSW) 3,614 9.0 -4.2°
